Probability
0 1 1 1 2 2 1 0 0 0 0 0 0 0 0 0 0 0 0 0 0 0 0 0 0 0 0 0 0 0 0 0 0 0 0 0 0 0 0 0 0 0 0
0 0 1 2 2 2 1 0 0 0 0 0 0 0 0 0 0 0 0 0 0 0 0 0 0 0 0 0 0 0 0 0 0 0 0 0 0 0 0 0 0 0 0
0 0 1 1 2 1 1 0 0 0 0 0 0 0 0 0 0 0 0 0 0 0 0 0 0 0 0 0 0 0 0 0 0 0 0 0 0 0 0 0 0 0 0
0 0 0 0 0 0 0 0 0 0 0 0 0 0 0 0 0 0 0 0 0 0 0 0 0 0 0 0 0 0 0 0 0 0 0 0 0 0 0 0 0 0 0
1 0 0 0 0 0 0 0 0 0 0 0 0 0 0 0 0 0 0 0 0 0 0 0 0 0 0 0 0 0 0 0 0 0 0 0 0 0 0 0 0 0 0
1 0 0 0 0 0 0 0 0 0 0 0 0 0 0 0 0 0 0 0 0 0 0 0 0 0 0 0 0 0 0 0 0 0 0 0 0 0 0 0 0 0 0
1 0 0 0 0 0 0 0 0 0 0 0 0 0 0 0 0 0 0 0 0 0 0 0 0 0 0 0 0 0 0 0 0 0 0 0 0 0 0 0 0 0 0
2 1 0 0 0 0 0 0 0 0 0 0 0 0 0 0 0 0 0 0 0 0 0 0 0 0 0 0 0 0 0 0 0 0 0 0 0 0 0 0 0 0 0
5 2 1 1 1 1 1 0 0 0 0 0 0 0 0 0 0 0 0 0 0 0 0 0 0 0 0 0 0 0 0 0 0 0 0 0 0 0 0 0 0 0 0
7 4 1 2 2 1 1 1 0 0 0 0 0 0 0 0 0 0 0 0 0 0 0 0 0 0 0 0 0 0 0 0 0 0 0 0 0 0 0 0 0 0 0
13 7 2 2 3 3 2 2 1 1 1 0 0 0 0 0 0 0 0 0 0 0 0 0 0 0 0 0 0 0 0 0 0 0 0 0 0 0 0 0 0 0 0
19 12 6 5 4 3 3 3 3 3 2 1 0 0 0 0 0 1 1 1 0 0 0 0 0 0 0 0 0 0 0 0 0 0 0 0 0 0 0 0 0 0 0
22 18 16 14 11 7 6 5 4 4 3 2 1 1 1 0 0 2 2 1 0 0 0 0 0 0 0 0 0 0 0 0 0 0 0 0 0 0 0 0 0 0 0
27 24 26 28 23 17 13 8 5 4 4 4 3 3 2 1 1 1 2 1 0 0 0 0 0 0 0 0 0 0 0 0 0 0 0 0 0 0 0 0 0 0 0
36 34 37 41 38 31 24 17 10 7 6 8 8 6 4 2 2 2 2 1 0 0 0 0 0 0 0 0 0 0 0 0 0 0 0 0 0 0 0 0 0 0 0
44 45 47 50 48 42 34 26 18 10 10 13 14 11 7 6 6 6 4 3 1 1 1 0 0 0 0 0 0 0 0 0 0 0 0 0 0 0 0 0 0 0 0
52 53 53 52 51 46 37 27 19 13 14 19 22 19 12 10 12 11 8 5 4 4 4 2 1 0 0 0 0 0 0 1 0 0 0 0 0 0 0 0 0 0 0
61 60 57 52 50 45 36 25 18 16 20 24 28 26 18 14 15 14 10 9 8 8 8 5 1 0 0 0 0 0 0 0 0 0 0 0 0 0 0 0 0 0 0
70 67 61 55 52 46 37 28 22 22 26 28 29 28 22 17 15 13 12 12 11 9 8 5 2 1 0 0 0 0 0 0 0 0 0 0 0 0 0 0 0 0 0
74 72 67 62 58 52 43 34 30 30 30 29 29 28 24 20 16 12 13 15 12 8 7 6 4 2 2 1 0 0 0 0 0 0 0 0 0 0 0 0 0 0 0
79 79 75 70 67 60 51 43 39 36 33 30 28 27 24 20 17 12 12 16 14 9 9 9 7 4 2 1 0 0 0 0 0 0 0 0 0 0 0 1 1 0 0
82 82 78 73 70 64 57 50 44 38 34 31 30 28 24 20 17 12 12 16 16 13 12 12 10 6 2 1 0 0 0 0 0 0 0 0 0 0 0 0 1 1 1
79 76 70 68 66 61 57 52 45 38 34 33 34 33 28 23 18 16 16 18 18 16 16 16 13 8 4 2 2 1 0 0 0 0 0 0 0 0 0 0 0 0 0
70 67 63 62 60 57 53 51 46 38 34 35 38 37 33 28 22 21 22 22 20 18 19 19 15 10 7 4 2 2 1 1 0 0 0 0 0 0 0 0 0 0 0
60 58 60 61 58 53 48 46 44 39 34 33 36 37 35 30 25 23 25 26 24 23 22 22 18 13 8 5 2 3 3 2 1 1 0 0 0 0 0 0 0 0 0
54 54 57 61 58 50 45 42 40 38 34 30 31 33 32 29 24 21 24 28 28 25 24 24 20 14 9 5 3 3 3 3 2 2 1 0 0 0 0 1 1 1 0
Wind_Speed
17 16 16 15 14 14 15 14 14 14 14 14 14 14 14 14 14 14 14 15 15 15 15 15 15 16 16 16 16 17 17 17 17 18 18 17 16 14 14 16 16 13 17
20 17 16 15 15 15 15 14 14 14 14 13 13 13 13 13 14 14 14 14 15 15 15 15 15 16 15 15 15 15 14 15 15 17 18 16 15 15 15 16 16 12 17
20 17 15 15 15 15 14 14 14 14 13 13 13 12 12 13 13 13 14 14 15 15 15 15 15 15 15 14 14 13 12 12 13 14 15 12 13 16 16 17 17 16 16
20 16 15 16 15 15 14 14 14 14 13 13 12 12 12 12 13 13 13 14 14 15 15 15 14 14 14 13 12 10 9 8 8 8 7 11 11 15 15 15 15 15 15
18 16 16 16 15 15 14 14 13 13 13 13 12 12 12 12 12 13 13 14 14 14 14 14 14 14 13 11 9 7 5 4 4 8 11 11 9 13 14 14 14 15 15
18 17 16 16 16 15 14 14 13 13 12 12 12 12 12 12 12 12 13 13 13 13 14 14 13 13 11 10 7 5 2 1 1 10 10 10 8 12 14 14 14 14 14
19 17 16 16 15 14 14 13 13 13 12 12 12 12 11 11 12 12 13 13 13 13 13 12 12 11 10 8 6 3 1 4 3 10 10 10 9 12 13 13 14 13 13
20 18 15 16 15 14 13 13 13 13 12 12 12 12 12 12 12 12 12 13 13 13 12 12 11 10 9 7 4 1 3 6 9 13 11 10 11 12 13 13 13 13 13
19 18 14 14 13 13 13 13 13 12 12 12 12 12 12 12 12 12 12 12 12 12 11 11 10 9 8 5 2 1 3 6 5 9 12 8 11 12 12 12 12 12 12
18 17 15 14 13 12 11 12 13 13 12 12 12 12 12 12 12 13 12 11 11 11 10 10 9 9 8 5 3 2 4 6 5 11 9 9 12 12 12 12 11 11 11
14 14 15 15 13 12 12 12 12 12 12 12 10 12 11 8 9 9 12 11 11 10 9 9 9 8 7 6 4 4 4 1 7 9 8 12 12 12 11 11 11 11 10
13 13 13 14 13 12 11 10 8 9 9 7 7 8 6 4 5 9 12 11 11 9 8 8 8 8 6 5 5 6 3 3 6 8 8 14 12 11 11 10 10 10 10
12 12 13 12 10 10 8 9 6 5 6 6 7 6 4 4 5 7 5 6 6 8 6 7 7 5 5 3 3 4 2 3 4 8 9 13 11 11 10 9 9 9 9
10 10 12 11 8 6 8 6 6 6 5 5 6 6 5 3 4 5 4 5 5 4 3 4 3 4 3 3 2 1 2 3 6 7 8 13 11 10 10 9 9 9 8
8 8 10 9 7 5 4 4 6 5 6 6 5 4 5 4 3 4 2 2 3 3 4 2 2 2 2 2 1 2 3 4 7 8 7 12 11 9 9 9 9 8 8
10 8 9 9 7 5 4 1 2 4 3 5 5 6 5 3 4 4 3 2 2 2 2 2 3 3 1 2 2 2 2 3 6 8 7 8 10 9 9 9 9 8 8
10 8 9 8 8 6 6 4 4 4 5 4 4 6 5 4 5 4 3 3 2 3 3 2 3 2 3 3 2 2 3 2 4 6 7 6 6 9 9 9 8 8 8
10 9 9 9 9 7 5 4 3 4 4 4 4 5 5 4 5 4 3 3 3 3 3 2 2 2 2 2 2 2 2 2 3 4 5 6 6 7 8 10 9 8 9
10 10 9 7 9 8 6 5 3 2 3 3 4 5 5 6 6 4 3 3 3 3 2 3 3 1 2 2 2 2 2 3 3 4 4 6 6 7 7 9 11 10 10
10 9 9 7 8 8 6 4 3 3 3 3 3 5 7 5 6 4 3 4 3 3 2 2 3 1 1 1 2 3 2 3 3 3 4 4 5 8 8 9 7 8 12
10 10 10 8 8 7 6 6 5 5 4 4 4 6 7 6 6 5 3 5 3 3 3 4 3 3 1 1 1 1 2 3 3 3 3 3 5 6 7 9 7 6 6
11 10 10 9 9 8 6 5 4 4 4 5 4 6 7 7 7 7 4 4 4 3 3 3 3 2 2 2 1 1 0 1 2 5 4 4 4 4 5 8 6 6 6
11 11 10 9 8 8 7 5 4 3 3 4 5 5 6 6 6 5 6 4 4 4 4 4 4 4 2 2 2 1 1 1 1 2 4 4 4 3 4 5 7 7 7
11 11 9 9 8 7 7 7 7 6 6 6 5 5 6 6 6 5 5 5 4 3 5 5 5 3 3 2 1 1 1 1 1 1 2 3 5 4 4 4 6 7 6
10 10 9 9 8 7 7 7 7 6 5 4 4 6 6 6 6 6 6 5 5 3 5 4 4 4 3 3 2 2 2 2 3 2 2 2 2 3 4 4 3 4 6
9 9 9 8 7 7 7 7 7 7 6 5 5 6 6 5 5 7 7 6 5 4 4 4 4 5 3 3 2 1 2 2 2 2 2 2 3 3 4 3 3 4 4
Wind_Direction
117 121 121 120 121 121 120 117 114 111 107 103 99 97 94 92 91 90 91 94 97 98 97 96 95 93 92 91 90 90 92 93 94 94 92 90 90 91 97 101 96 94 97
119 121 122 122 123 122 122 120 119 115 112 108 105 103 100 98 97 95 96 98 99 100 99 99 98 96 96 95 95 97 99 102 104 104 99 89 86 87 86 87 91 100 101
118 123 124 122 123 122 123 123 122 119 116 113 110 109 106 104 102 100 100 100 102 102 101 100 100 100 99 100 101 104 108 112 118 122 110 96 87 86 89 93 97 99 100
125 131 125 125 124 123 124 125 124 122 119 117 116 114 111 108 106 104 103 103 104 105 104 103 102 102 103 103 106 110 115 123 133 132 102 94 91 91 94 97 99 100 101
121 118 124 126 125 125 125 126 125 124 123 122 120 118 114 111 109 108 107 106 106 106 106 105 104 104 104 106 109 114 122 134 149 101 88 86 87 96 98 100 101 102 103
122 123 126 127 126 127 128 128 127 127 128 127 124 120 116 114 112 112 110 109 108 107 107 106 105 106 107 110 114 114 97 348 44 98 101 98 96 99 100 102 102 103 104
125 125 130 129 128 129 130 130 130 131 130 128 126 123 120 116 114 113 112 111 109 109 108 107 108 108 110 114 118 110 17 326 106 100 94 93 97 101 102 103 102 103 104
126 127 129 131 131 132 133 134 134 133 132 130 130 127 124 121 118 115 114 113 113 111 110 110 110 111 111 115 118 70 343 325 103 103 99 99 106 105 105 105 105 105 106
126 129 138 139 137 138 139 139 138 136 135 135 133 130 127 125 123 120 118 118 117 115 115 116 117 118 119 124 132 311 320 334 97 114 110 109 113 112 111 109 110 111 111
131 138 144 145 144 148 145 145 143 140 140 140 139 138 135 133 131 130 126 123 123 122 124 126 128 130 134 146 182 272 317 325 115 104 107 118 122 119 117 115 115 114 114
137 143 149 147 153 156 153 148 149 147 147 147 148 150 152 152 144 147 126 132 132 134 136 141 145 147 152 169 204 248 285 261 105 102 107 123 127 124 121 121 119 118 117
145 150 149 150 157 162 152 148 159 161 157 170 157 165 179 155 144 131 134 142 145 149 155 161 160 163 183 178 198 226 251 175 117 107 119 131 129 127 126 127 127 125 124
153 153 147 145 157 158 140 160 166 157 158 177 164 171 164 141 139 131 147 150 159 168 181 166 179 192 210 183 181 207 221 112 109 110 130 134 134 135 135 135 135 134 132
159 154 149 142 157 151 151 163 155 156 165 170 164 178 153 162 150 149 157 167 173 181 183 183 191 180 183 154 177 172 88 102 107 114 135 139 142 144 145 146 146 144 143
160 157 140 139 147 142 141 162 164 160 167 162 159 180 161 162 156 142 145 157 179 159 171 191 141 115 127 143 152 100 77 93 113 123 135 149 148 150 153 155 156 156 158
166 157 136 142 143 138 138 169 143 152 152 149 161 165 175 164 142 134 141 164 188 152 152 150 130 136 138 94 78 87 86 91 108 124 140 150 154 157 163 166 166 166 168
163 153 144 149 149 156 163 185 173 164 162 161 156 153 175 169 142 151 159 184 180 147 136 141 137 154 166 145 125 118 109 112 123 131 144 154 162 170 174 176 175 175 179
161 156 157 166 160 167 171 190 185 184 160 155 151 155 177 160 155 165 170 181 160 152 150 148 167 180 150 128 134 137 123 123 129 151 156 162 166 172 182 186 184 187 191
156 156 162 168 161 172 174 181 204 191 157 157 161 160 173 170 166 183 176 153 171 162 158 180 144 153 144 148 157 154 158 161 163 178 167 174 171 165 171 186 191 194 199
156 159 164 169 163 168 168 172 195 189 165 176 173 166 168 176 173 183 177 165 184 161 156 131 121 127 130 193 192 154 188 178 182 177 184 182 176 176 178 175 184 200 206
163 167 168 174 168 166 172 180 186 186 183 187 186 176 175 182 177 192 189 161 186 164 160 154 148 154 193 208 163 173 214 200 188 176 194 189 189 186 175 168 182 186 196
169 169 170 176 173 176 181 182 182 180 187 194 191 175 181 186 180 190 198 174 178 163 164 163 151 165 208 195 191 163 274 275 234 201 187 195 196 186 180 178 182 181 186
174 175 177 176 175 182 176 171 179 176 193 197 182 174 184 183 187 196 175 188 174 173 171 179 179 186 204 212 198 171 187 219 239 231 206 196 185 186 195 180 185 189 195
176 175 172 172 175 178 175 179 184 189 196 198 184 179 182 182 186 192 180 186 184 187 166 183 187 190 193 215 222 212 218 188 187 236 257 206 192 193 207 208 196 187 193
172 174 171 167 173 175 182 188 191 201 204 200 187 179 180 183 191 194 188 186 188 197 179 187 164 186 191 206 221 217 217 215 227 200 227 219 214 203 200 205 195 187 190
164 167 167 167 173 175 186 196 201 205 205 202 192 181 181 184 194 197 191 189 191 198 185 183 178 192 208 224 236 250 219 213 227 220 220 219 216 213 197 192 195 196 193